Coolangatta, Queensland

1:39 PM AEST on September 01, 2016 (GMT +1000)
Coolangatta

Weather History for YBCG - May, 2014

Change the Weather History Date:

Thursday, May 1, 2014

  Actual Average (YBBN) Record (YBBN)
Temperature  
Mean Temperature 70 °F -  
Max Temperature 77 °F 74 °F 80 °F (2007)
Min Temperature 62 °F 58 °F 50 °F (2008)
Cooling Degree Days 4    
Growing Degree Days 20 (Base 50)    
Moisture  
Dew Point 63 °F    
Average Humidity 82    
Maximum Humidity 100    
Minimum Humidity 53    
Precipitation  
Precipitation 0.28 in - - ()
Sea Level Pressure  
Sea Level Pressure 29.94 in    
Wind  
Wind Speed 5 mph ()    
Max Wind Speed 15 mph    
Max Gust Speed -    
Visibility 6.0 miles    
Events      
Averages and records for this station are not official NWS values.
T = Trace of Precipitation, MM = Missing Value Source: Averaged Metar Reports

Daily Weather History Graph

Daily Weather History Graph

Search for Another Location

Airport or City:

Trip Planner

Search our weather history database for the weather conditions in past years. The results will help you decide how hot, cold, wet, or windy it might be!

Date:

Astronomy

May. 01, 2014 Rise Set
Actual Time 6:12 AM AEST 5:13 PM AEST
Civil Twilight 5:47 AM AEST 5:38 PM AEST
Nautical Twilight 5:19 AM AEST 6:06 PM AEST
Astronomical Twilight 4:52 AM AEST 6:33 PM AEST
Moon 7:46 AM AEST 6:48 PM AEST
Length of Visible Light 11h 50m
Length of Day
11h 01m
Waxing Crescent, 4% of the Moon is Illuminated
May 1
Waxing Crescent
May 7
First Quarter
May 15
Full
May 21
Last Quarter
May 29
New

Hourly Weather History & Observations

Time (AEST) Temp. Dew Point Humidity Pressure Visibility Wind Dir Wind Speed Gust Speed Precip Events Conditions
12:00 AM 65 °F 64 °F 93% 29.97 in - WSW 2.3 mph - -  
12:00 AM 66.2 °F 64.4 °F 94% 29.98 in 6.2 mi WSW 2.3 mph - N/A   Mostly Cloudy
12:30 AM 64.4 °F 62.6 °F 94% 29.95 in 6.2 mi WNW 6.9 mph - N/A   Mostly Cloudy
1:00 AM 64.4 °F 62.6 °F 94% 29.95 in 6.2 mi WNW 5.8 mph - N/A   Overcast
1:30 AM 64.4 °F 62.6 °F 94% 29.95 in 6.2 mi WNW 8.1 mph - N/A   Overcast
2:00 AM 64.4 °F 62.6 °F 94% 29.92 in 6.2 mi West 5.8 mph - N/A   Overcast
2:30 AM 64.4 °F 62.6 °F 94% 29.92 in 6.2 mi WSW 3.5 mph - N/A   Overcast
3:00 AM 66 °F 63 °F 85% 29.93 in - Calm Calm - -  
3:00 AM 66.2 °F 62.6 °F 88% 29.92 in 6.2 mi Calm Calm - N/A   Overcast
3:30 AM 66.2 °F 62.6 °F 88% 29.92 in 6.2 mi Calm Calm - N/A   Overcast
4:00 AM 64.4 °F 62.6 °F 94% 29.92 in 6.2 mi Calm Calm - N/A   Overcast
4:30 AM 64.4 °F 62.6 °F 94% 29.92 in 6.2 mi Calm Calm - N/A   Mostly Cloudy
5:00 AM 64.4 °F 64.4 °F 100% 29.92 in 6.2 mi SW 4.6 mph - N/A   Overcast
5:30 AM 64.4 °F 62.6 °F 94% 29.92 in 6.2 mi SW 5.8 mph - N/A   Overcast
6:00 AM 63 °F 62 °F 93% 29.95 in - South 3.5 mph - -  
6:00 AM 62.6 °F 60.8 °F 94% 29.95 in 6.2 mi South 3.5 mph - N/A   Unknown
6:30 AM 62.6 °F 60.8 °F 94% 29.95 in 6.2 mi South 4.6 mph - N/A   Unknown
7:00 AM 64.4 °F 62.6 °F 94% 29.98 in 6.2 mi Calm Calm - N/A   Overcast
7:30 AM 64.4 °F 64.4 °F 100% 29.98 in 6.2 mi Calm Calm - N/A   Overcast
8:00 AM 66.2 °F 64.4 °F 94% 29.98 in 6.2 mi South 4.6 mph - N/A   Overcast
8:30 AM 68.0 °F 64.4 °F 88% 29.98 in 6.2 mi SW 4.6 mph - N/A   Overcast
9:00 AM 71 °F 63 °F 70% 30.00 in - SSW 5.8 mph - -  
9:00 AM 71.6 °F 62.6 °F 73% 29.98 in 6.2 mi SSW 5.8 mph - N/A   Mostly Cloudy
9:30 AM 73.4 °F 62.6 °F 69% 29.98 in 6.2 mi SW 8.1 mph - N/A   Unknown
10:00 AM 73.4 °F 62.6 °F 69% 29.98 in 6.2 mi SSW 10.4 mph - N/A   Scattered Clouds
10:30 AM 75.2 °F 62.6 °F 65% 29.98 in 6.2 mi South 10.4 mph - N/A   Unknown
11:00 AM 77.0 °F 64.4 °F 65% 29.95 in 6.2 mi South 10.4 mph - N/A   Unknown
11:30 AM 77.0 °F 62.6 °F 61% 29.95 in 6.2 mi South 9.2 mph - N/A   Scattered Clouds
12:00 PM 77 °F 63 °F 53% 29.94 in - South 9.2 mph - -  
12:00 PM 77.0 °F 62.6 °F 61% 29.92 in 6.2 mi South 9.2 mph - N/A   Unknown
12:30 PM 75.2 °F 62.6 °F 65% 29.92 in 6.2 mi SSE 12.7 mph - N/A   Mostly Cloudy
1:00 PM 75.2 °F 62.6 °F 65% 29.92 in 6.2 mi SSE 11.5 mph - N/A   Mostly Cloudy
1:30 PM 75.2 °F 62.6 °F 65% 29.92 in 6.2 mi SE 11.5 mph - N/A   Mostly Cloudy
2:00 PM 75.2 °F 62.6 °F 65% 29.92 in 6.2 mi SE 13.8 mph - N/A   Mostly Cloudy
2:30 PM 75.2 °F 62.6 °F 65% 29.92 in 6.2 mi SSE 15.0 mph - N/A   Mostly Cloudy
3:00 PM 76 °F 63 °F 55% 29.91 in - SSE 15.0 mph - -  
3:00 PM 75.2 °F 62.6 °F 65% 29.89 in 6.2 mi SSE 15.0 mph - N/A   Unknown
3:30 PM 73.4 °F 62.6 °F 69% 29.89 in 6.2 mi SSE 15.0 mph - N/A   Mostly Cloudy
4:00 PM 73.4 °F 62.6 °F 69% 29.92 in 6.2 mi SE 13.8 mph - N/A   Scattered Clouds
4:30 PM 71.6 °F 62.6 °F 73% 29.92 in 6.2 mi SE 11.5 mph - N/A   Mostly Cloudy
5:00 PM 71.6 °F 62.6 °F 73% 29.92 in 6.2 mi SSE 9.2 mph - N/A   Scattered Clouds
5:30 PM 69.8 °F 62.6 °F 78% 29.92 in 6.2 mi SSE 6.9 mph - N/A   Overcast
6:00 PM 70 °F 63 °F 72% 29.93 in - SSE 5.8 mph - -  
6:00 PM 69.8 °F 62.6 °F 78% 29.92 in 6.2 mi SSE 5.8 mph - N/A   Mostly Cloudy
6:30 PM 69.8 °F 62.6 °F 78% 29.92 in 6.2 mi South 4.6 mph - N/A   Mostly Cloudy
7:00 PM 69.8 °F 64.4 °F 83% 29.95 in 6.2 mi SW 3.5 mph - N/A   Overcast
7:30 PM 69.8 °F 64.4 °F 83% 29.95 in 6.2 mi WSW 5.8 mph - N/A   Overcast
7:56 PM 68.0 °F 64.4 °F 88% 29.95 in - West 6.9 mph - N/A   Overcast
8:00 PM 68.0 °F 64.4 °F 88% 29.95 in 0.4 mi WNW 3.5 mph - N/A   Overcast
8:23 PM 68.0 °F 64.4 °F 88% 29.95 in 4.3 mi WSW 2.3 mph - N/A   Overcast
8:30 PM 68.0 °F 64.4 °F 88% 29.95 in 6.2 mi WSW 5.8 mph - N/A   Overcast
9:00 PM 67 °F 65 °F 92% 29.96 in - South 6.9 mph - -   Overcast
9:00 PM 68.0 °F 64.4 °F 88% 29.95 in 6.2 mi South 6.9 mph - N/A   Mostly Cloudy
9:30 PM 68.0 °F 64.4 °F 88% 29.95 in 6.2 mi SSE 9.2 mph - N/A   Overcast
10:00 PM 66.2 °F 64.4 °F 94% 29.95 in 6.2 mi SSW 5.8 mph - N/A   Scattered Clouds
10:30 PM 66.2 °F 64.4 °F 94% 29.95 in 6.2 mi SW 6.9 mph - N/A   Scattered Clouds
11:00 PM 66.2 °F 64.4 °F 94% 29.92 in 6.2 mi SW 6.9 mph - N/A   Scattered Clouds
11:30 PM 66.2 °F 62.6 °F 88% 29.92 in 6.2 mi SSE 3.5 mph - N/A   Mostly Cloudy